Location: Unspecified
(49.2170°N, 0.0000°E)
Time: 11:11:59
(UTC+00:00)

A-11 Canister half - Pass Details

Date: 24 June 2019
Orbit: 1526 x 1683 km, 47.3° (Epoch: 16 August)

Event Time Altitude Azimuth Distance (km) Brightness Sun altitude
Rises 06:08:47 0° 258° (WSW) 4,730 10.9 18.5°
Reaches altitude 10° 06:11:52 10° 257° (WSW) 3,731 10.5 19.0°
Maximum altitude 06:21:15 79° 173° (S) 1,557 9.4 20.5°
Drops below altitude 10° 06:30:32 10° 89° (E) 3,698 13.0 22.0°
Sets 06:33:35 0° 88° (E) 4,686 13.0 22.5°
